GONETS D1M 1

导读

GONETS D1M 1是由独联体(CIS)发射的低轨道通信卫星,于2005年12月21日08:00发射入轨。它属于“GONETS”(“信使”)卫星系列,该系列主要为俄罗斯及相关区域提供民用乃至小型化的移动通信服务,支持偏远地区数据传输、应急通信等场景,作为早期组网卫星,它为后续“信使”低轨卫星通信系统的运营和拓展奠定了基础,是独联体区域自主卫星通信网络建设的组成部分。

Basic Information
目录编号:
28909
目录名称:
GONETS D1M 1
国际标识:
2005-048B
轨道中心:
EARTH
卫星名称:
GONETS D1M 1
卫星全名:
--
卫星状态:
在轨 (已飞行7551 天)
发射日期:
2005-12-21 UTC
国别 :
俄罗斯(独联体) (CIS)
星等 :
--
Orbit Information
数据来源 国际轨道数据 AOE轨道数据
星历时间 2026-08-24T07:33:45+0800
10小时前
查看轨道信息
2026-08-20T19:00:00+0800
3天前
查看轨道信息
半长轴 7820.562km 7820.561km
偏心率 0.0008101 0.0008161
轨道倾角 82.465° 82.465°
近地点辐角 21.459° 28.962°
升交点赤经 266.929° 269.181°
平近点角 52.490° 330.208°
近地点 1436.089km 1436.041km
远地点 1448.761km 1448.807km
周期 114.714分钟 114.714分钟
每日圈数 12.552951 12.552953
Detailed Information
使用方式:
暂无
2D Orbit Map
3D Orbit Map
Orbit Altitude Analysis Chart
Orbit Inclination Analysis Chart
Orbit Comprehensive Analysis Chart
View Comprehensive Chart